Rock Springs, WY

6:00 PM MDT on July 30, 2016 (GMT -0600)
Rock Springs-Sweetwater

Weather History for KRKS - October, 2012

Change the Weather History Date:

Tuesday, October 9, 2012

  Actual Average Record
Temperature  
Mean Temperature 50 °F 47 °F  
Max Temperature 65 °F 60 °F 79 °F (2003)
Min Temperature 35 °F 34 °F 15 °F (2009)
Degree Days  
Heating Degree Days 15 18  
Month to date heating degree days 173 149  
Since 1 July heating degree days 302 477  
Cooling Degree Days 0 0  
Month to date cooling degree days 0 0  
Year to date cooling degree days 541 286  
Moisture  
Dew Point 12 °F    
Average Humidity 37    
Maximum Humidity 64    
Minimum Humidity 10    
Precipitation  
Precipitation 0.00 in 0.03 in 0.38 in (1954)
Month to date precipitation 0.00 0.26  
Year to date precipitation 2.69 6.96  
Snow  
Snow 0.00 in - - ()
Snow Depth 0.00 in    
Sea Level Pressure  
Sea Level Pressure 29.95 in    
Wind  
Wind Speed 10 mph (WNW)    
Max Wind Speed 23 mph    
Max Gust Speed 33 mph    
Visibility 10 miles    
Events      
T = Trace of Precipitation, MM = Missing Value Source: NWS Daily Summary

Daily Weather History Graph

Daily Weather History Graph

Search for Another Location

Airport or City:

Trip Planner

Search our weather history database for the weather conditions in past years. The results will help you decide how hot, cold, wet, or windy it might be!

Date:

Astronomy

Oct. 09, 2012 Rise Set
Actual Time 7:22 AM MDT 6:43 PM MDT
Civil Twilight 6:54 AM MDT 7:11 PM MDT
Nautical Twilight 6:22 AM MDT 7:43 PM MDT
Astronomical Twilight 5:50 AM MDT 8:15 PM MDT
Moon 12:57 AM MDT (10/9) 3:17 PM MDT (10/9)
Length of Visible Light 12h 17m
Length of Day
11h 21m
Last Quarter, 36% of the Moon is Illuminated
Oct 9
Last Quarter
Oct 15
New
Oct 21
First Quarter
Oct 29
Full
Nov 6
Last Quarter

Hourly Weather History & Observations

Time (MDT) Temp. Windchill Dew Point Humidity Pressure Visibility Wind Dir Wind Speed Gust Speed Precip Events Conditions
12:54 AM 44.1 °F - 5.0 °F 20% 29.87 in 10.0 mi Calm Calm - N/A   Clear
1:54 AM 42.1 °F 36.6 °F 7.0 °F 24% 29.86 in 10.0 mi SW 9.2 mph - N/A   Clear
2:54 AM 44.1 °F 37.1 °F 8.1 °F 23% 29.85 in 10.0 mi West 15.0 mph - N/A   Clear
3:54 AM 42.1 °F 35.2 °F 9.0 °F 26% 29.85 in 10.0 mi WSW 12.7 mph - N/A   Clear
4:54 AM 41.0 °F 33.9 °F 10.0 °F 28% 29.86 in 10.0 mi WSW 12.7 mph - N/A   Clear
5:54 AM 39.0 °F 32.8 °F 10.9 °F 32% 29.90 in 10.0 mi SSW 9.2 mph - N/A   Clear
6:54 AM 37.0 °F 31.0 °F 10.9 °F 34% 29.94 in 10.0 mi West 8.1 mph - N/A   Clear
7:54 AM 37.9 °F 35.5 °F 9.0 °F 30% 29.97 in 10.0 mi NE 3.5 mph - N/A   Clear
8:54 AM 43.0 °F - 9.0 °F 25% 29.98 in 10.0 mi Calm Calm - N/A   Clear
9:54 AM 46.9 °F - 10.9 °F 23% 29.99 in 10.0 mi West 4.6 mph - N/A   Clear
10:54 AM 50.0 °F - 10.0 °F 20% 29.98 in 10.0 mi Variable 3.5 mph - N/A   Clear
11:54 AM 55.0 °F - 10.9 °F 17% 29.97 in 10.0 mi WNW 5.8 mph - N/A   Clear
12:54 PM 57.9 °F - 10.0 °F 15% 29.95 in 10.0 mi West 9.2 mph - N/A   Clear
1:54 PM 62.1 °F - 8.1 °F 12% 29.94 in 10.0 mi West 16.1 mph 24.2 mph N/A   Clear
2:54 PM 63.0 °F - 5.0 °F 10% 29.91 in 10.0 mi West 17.3 mph 29.9 mph N/A   Clear
3:54 PM 64.0 °F - 6.1 °F 10% 29.91 in 10.0 mi WNW 23.0 mph 28.8 mph N/A   Clear
4:54 PM 64.0 °F - 7.0 °F 11% 29.90 in 10.0 mi West 13.8 mph 24.2 mph N/A   Clear
5:54 PM 62.1 °F - 9.0 °F 12% 29.92 in 10.0 mi WNW 17.3 mph 24.2 mph N/A   Clear
6:54 PM 57.0 °F - 10.0 °F 15% 29.96 in 10.0 mi WNW 10.4 mph - N/A   Clear
7:54 PM 48.9 °F - 19.0 °F 31% 30.03 in 10.0 mi NE 9.2 mph - N/A   Clear
8:54 PM 43.0 °F 36.8 °F 26.1 °F 51% 30.07 in 10.0 mi ENE 11.5 mph - N/A   Clear
9:54 PM 39.9 °F 34.5 °F 26.1 °F 58% 30.08 in 10.0 mi ENE 8.1 mph - N/A   Clear
10:54 PM 37.0 °F 31.0 °F 26.1 °F 65% 30.09 in 10.0 mi ENE 8.1 mph - N/A   Clear
11:54 PM 37.0 °F 33.3 °F 26.1 °F 65% 30.06 in 10.0 mi ENE 4.6 mph - N/A   Clear